| time (UTC) | temp F | wind direction | speed MPH | gust MPH | rain 1hr in | rain 24hr in | rain mn in | humidity % | barometer mb |
| 20260505011646 | 74 | 264 | 23.0 | 31.0 | 0.00 | 0.00 | 0.00 | 67 | 1012.0 |
| 20260505011446 | 73 | 262 | 23.0 | 29.0 | 0.00 | 0.00 | 0.00 | 67 | 1012.0 |
| 20260505011246 | 73 | 262 | 23.0 | 29.0 | 0.00 | 0.00 | 0.00 | 67 | 1012.0 |
| 20260505011046 | 73 | 262 | 23.0 | 51.0 | 0.00 | 0.00 | 0.00 | 67 | 1012.0 |
| 20260505010847 | 73 | 262 | 23.0 | 51.0 | 0.00 | 0.00 | 0.00 | 67 | 1012.0 |
| 20260505010247 | 73 | 262 | 23.0 | 51.0 | 0.00 | 0.00 | 0.00 | 67 | 1012.0 |
| 20260505005447 | 73 | 262 | 21.0 | 48.0 | 0.00 | 0.00 | 0.00 | 67 | 1012.0 |
| 20260505005247 | 73 | 262 | 21.0 | 48.0 | 0.00 | 0.00 | 0.00 | 67 | 1012.0 |
| 20260505004846 | 73 | 262 | 21.0 | 48.0 | 0.00 | 0.00 | 0.00 | 67 | 1012.0 |
| 20260505004446 | 73 | 260 | 18.0 | 46.0 | 0.00 | 0.00 | 0.00 | 67 | 1012.0 |
| 20260505004246 | 73 | 260 | 18.0 | 46.0 | 0.00 | 0.00 | 0.00 | 67 | 1012.0 |
| 20260505004046 | 73 | 260 | 18.0 | 46.0 | 0.00 | 0.00 | 0.00 | 67 | 1012.0 |
| 20260505003846 | 73 | 260 | 18.0 | 46.0 | 0.00 | 0.00 | 0.00 | 67 | 1012.0 |
| 20260505003646 | 73 | 260 | 18.0 | 46.0 | 0.00 | 0.00 | 0.00 | 67 | 1012.0 |
| 20260505003446 | 73 | 260 | 18.0 | 46.0 | 0.00 | 0.00 | 0.00 | 67 | 1012.0 |
| 20260505003246 | 73 | 260 | 18.0 | 46.0 | 0.00 | 0.00 | 0.00 | 67 | 1012.0 |
| 20260505003046 | 73 | 260 | 18.0 | 46.0 | 0.00 | 0.00 | 0.00 | 67 | 1012.0 |
| 20260505002846 | 73 | 256 | 16.0 | 44.0 | 0.00 | 0.00 | 0.00 | 66 | 1011.0 |
| 20260505002646 | 73 | 256 | 16.0 | 44.0 | 0.00 | 0.00 | 0.00 | 66 | 1011.0 |
| 20260505002247 | 73 | 256 | 16.0 | 44.0 | 0.00 | 0.00 | 0.00 | 66 | 1011.0 |
| 20260505002047 | 73 | 256 | 16.0 | 44.0 | 0.00 | 0.00 | 0.00 | 66 | 1011.0 |
| 20260505001847 | 73 | 256 | 16.0 | 44.0 | 0.00 | 0.00 | 0.00 | 66 | 1011.0 |
| 20260505001647 | 73 | 256 | 16.0 | 44.0 | 0.00 | 0.00 | 0.00 | 66 | 1011.0 |
| 20260505001447 | 73 | 252 | 14.0 | 42.0 | 0.00 | 0.00 | 0.00 | 66 | 1011.0 |
| 20260505001247 | 73 | 252 | 14.0 | 42.0 | 0.00 | 0.00 | 0.00 | 66 | 1011.0 |
| 20260505001047 | 73 | 252 | 14.0 | 42.0 | 0.00 | 0.00 | 0.00 | 66 | 1011.0 |
| 20260505000846 | 73 | 252 | 14.0 | 42.0 | 0.00 | 0.00 | 0.00 | 66 | 1011.0 |
| 20260505000647 | 73 | 252 | 14.0 | 42.0 | 0.00 | 0.00 | 0.00 | 66 | 1011.0 |
| 20260505000447 | 73 | 252 | 14.0 | 42.0 | 0.00 | 0.00 | 0.00 | 66 | 1011.0 |
| 20260505000049 | 73 | 252 | 14.0 | 42.0 | 0.00 | 0.00 | 0.00 | 79 | 1011.0 |
| 20260504235847 | 73 | 246 | 15.0 | 44.0 | 0.00 | 0.00 | 0.00 | 78 | 1011.0 |
| 20260504235647 | 73 | 246 | 15.0 | 44.0 | 0.00 | 0.00 | 0.00 | 78 | 1011.0 |
| 20260504235447 | 73 | 246 | 15.0 | 44.0 | 0.00 | 0.00 | 0.00 | 78 | 1011.0 |
| 20260504235247 | 73 | 246 | 15.0 | 44.0 | 0.00 | 0.00 | 0.00 | 78 | 1011.0 |
| 20260504235047 | 73 | 246 | 15.0 | 44.0 | 0.00 | 0.00 | 0.00 | 78 | 1011.0 |
| 20260504234847 | 73 | 246 | 15.0 | 44.0 | 0.00 | 0.00 | 0.00 | 78 | 1011.0 |
| 20260504234647 | 73 | 246 | 15.0 | 44.0 | 0.00 | 0.00 | 0.00 | 78 | 1011.0 |
| 20260504234447 | 74 | 239 | 16.0 | 46.0 | 0.00 | 0.00 | 0.00 | 77 | 1011.0 |
| 20260504234248 | 74 | 239 | 16.0 | 46.0 | 0.00 | 0.00 | 0.00 | 77 | 1011.0 |
| 20260504233846 | 74 | 239 | 16.0 | 46.0 | 0.00 | 0.00 | 0.00 | 77 | 1011.0 |
| 20260504233646 | 74 | 239 | 16.0 | 46.0 | 0.00 | 0.00 | 0.00 | 77 | 1011.0 |
| 20260504233446 | 74 | 239 | 16.0 | 46.0 | 0.00 | 0.00 | 0.00 | 77 | 1011.0 |
| 20260504233246 | 74 | 239 | 16.0 | 46.0 | 0.00 | 0.00 | 0.00 | 77 | 1011.0 |
| 20260504233046 | 74 | 239 | 16.0 | 46.0 | 0.00 | 0.00 | 0.00 | 77 | 1011.0 |
| 20260504232847 | 74 | 233 | 18.0 | 48.0 | 0.00 | 0.00 | 0.00 | 75 | 1011.0 |
| 20260504232646 | 74 | 233 | 18.0 | 48.0 | 0.00 | 0.00 | 0.00 | 75 | 1011.0 |
| 20260504232446 | 74 | 233 | 18.0 | 48.0 | 0.00 | 0.00 | 0.00 | 75 | 1011.0 |
| 20260504232246 | 74 | 233 | 18.0 | 48.0 | 0.00 | 0.00 | 0.00 | 75 | 1011.0 |
| 20260504232047 | 74 | 233 | 18.0 | 48.0 | 0.00 | 0.00 | 0.00 | 75 | 1011.0 |
| 20260504231646 | 74 | 233 | 18.0 | 48.0 | 0.00 | 0.00 | 0.00 | 75 | 1011.0 |
| 20260504231447 | 74 | 229 | 19.0 | 49.0 | 0.00 | 0.00 | 0.00 | 73 | 1010.0 |
| 20260504231246 | 74 | 229 | 19.0 | 49.0 | 0.00 | 0.00 | 0.00 | 73 | 1010.0 |
| 20260504231046 | 74 | 229 | 19.0 | 49.0 | 0.00 | 0.00 | 0.00 | 73 | 1010.0 |
| 20260504230846 | 74 | 229 | 19.0 | 49.0 | 0.00 | 0.00 | 0.00 | 73 | 1010.0 |
| 20260504230646 | 74 | 229 | 19.0 | 49.0 | 0.00 | 0.00 | 0.00 | 73 | 1010.0 |
| 20260504230447 | 74 | 229 | 19.0 | 49.0 | 0.00 | 0.00 | 0.00 | 73 | 1010.0 |
| 20260504230246 | 74 | 229 | 19.0 | 49.0 | 0.00 | 0.00 | 0.00 | 73 | 1010.0 |
| 20260504230048 | 74 | 229 | 19.0 | 49.0 | 0.00 | 0.00 | 0.00 | 73 | 1010.0 |
| 20260504225647 | 74 | 228 | 20.0 | 49.0 | 0.00 | 0.00 | 0.00 | 71 | 1010.0 |
| 20260504225447 | 74 | 228 | 20.0 | 49.0 | 0.00 | 0.00 | 0.00 | 71 | 1010.0 |
| 20260504225247 | 74 | 228 | 20.0 | 49.0 | 0.00 | 0.00 | 0.00 | 71 | 1010.0 |
| 20260504225047 | 74 | 228 | 20.0 | 49.0 | 0.00 | 0.00 | 0.00 | 71 | 1010.0 |
| 20260504224847 | 74 | 228 | 20.0 | 49.0 | 0.00 | 0.00 | 0.00 | 71 | 1010.0 |
| 20260504224647 | 74 | 228 | 20.0 | 49.0 | 0.00 | 0.00 | 0.00 | 71 | 1010.0 |
| 20260504224447 | 74 | 228 | 21.0 | 49.0 | 0.00 | 0.00 | 0.00 | 69 | 1010.0 |
| 20260504224247 | 74 | 228 | 21.0 | 49.0 | 0.00 | 0.00 | 0.00 | 69 | 1010.0 |
| 20260504224047 | 74 | 228 | 21.0 | 49.0 | 0.00 | 0.00 | 0.00 | 69 | 1010.0 |
| 20260504223847 | 74 | 228 | 21.0 | 49.0 | 0.00 | 0.00 | 0.00 | 69 | 1010.0 |
| 20260504223447 | 74 | 228 | 21.0 | 49.0 | 0.00 | 0.00 | 0.00 | 69 | 1010.0 |
| 20260504223247 | 74 | 228 | 21.0 | 49.0 | 0.00 | 0.00 | 0.00 | 69 | 1010.0 |
| 20260504223047 | 74 | 228 | 21.0 | 49.0 | 0.00 | 0.00 | 0.00 | 69 | 1010.0 |
| 20260504222847 | 74 | 228 | 22.0 | 49.0 | 0.00 | 0.00 | 0.00 | 67 | 1010.0 |
| 20260504222647 | 74 | 228 | 22.0 | 49.0 | 0.00 | 0.00 | 0.00 | 67 | 1010.0 |
| 20260504222447 | 74 | 228 | 22.0 | 49.0 | 0.00 | 0.00 | 0.00 | 67 | 1010.0 |
| 20260504222247 | 74 | 228 | 22.0 | 49.0 | 0.00 | 0.00 | 0.00 | 67 | 1010.0 |
| 20260504222047 | 74 | 228 | 22.0 | 49.0 | 0.00 | 0.00 | 0.00 | 67 | 1010.0 |
| 20260504221847 | 74 | 228 | 22.0 | 49.0 | 0.00 | 0.00 | 0.00 | 67 | 1010.0 |
| 20260504221647 | 74 | 228 | 22.0 | 49.0 | 0.00 | 0.00 | 0.00 | 67 | 1010.0 |
| 20260504221246 | 75 | 227 | 22.0 | 48.0 | 0.00 | 0.00 | 0.00 | 66 | 1010.0 |
| 20260504221048 | 75 | 227 | 22.0 | 48.0 | 0.00 | 0.00 | 0.00 | 66 | 1010.0 |
| 20260504220846 | 75 | 227 | 22.0 | 48.0 | 0.00 | 0.00 | 0.00 | 66 | 1010.0 |
| 20260504220647 | 75 | 227 | 22.0 | 48.0 | 0.00 | 0.00 | 0.00 | 66 | 1010.0 |
| 20260504220447 | 75 | 227 | 22.0 | 48.0 | 0.00 | 0.00 | 0.00 | 66 | 1010.0 |
| 20260504220247 | 75 | 227 | 22.0 | 48.0 | 0.00 | 0.00 | 0.00 | 66 | 1010.0 |
| 20260504220048 | 75 | 227 | 22.0 | 48.0 | 0.00 | 0.00 | 0.00 | 66 | 1010.0 |
| 20260504215846 | 75 | 227 | 21.0 | 47.0 | 0.00 | 0.00 | 0.00 | 65 | 1010.0 |
| 20260504215646 | 75 | 227 | 21.0 | 47.0 | 0.00 | 0.00 | 0.00 | 65 | 1010.0 |
| 20260504215448 | 75 | 227 | 21.0 | 47.0 | 0.00 | 0.00 | 0.00 | 65 | 1010.0 |
| 20260504215047 | 75 | 227 | 21.0 | 47.0 | 0.00 | 0.00 | 0.00 | 65 | 1010.0 |
| 20260504214847 | 75 | 227 | 21.0 | 47.0 | 0.00 | 0.00 | 0.00 | 65 | 1010.0 |
| 20260504214647 | 75 | 227 | 21.0 | 47.0 | 0.00 | 0.00 | 0.00 | 65 | 1010.0 |
| 20260504214447 | 75 | 226 | 21.0 | 46.0 | 0.00 | 0.00 | 0.00 | 64 | 1010.0 |
| 20260504214247 | 75 | 226 | 21.0 | 46.0 | 0.00 | 0.00 | 0.00 | 64 | 1010.0 |
| 20260504214047 | 75 | 226 | 21.0 | 46.0 | 0.00 | 0.00 | 0.00 | 64 | 1010.0 |
| 20260504213847 | 75 | 226 | 21.0 | 46.0 | 0.00 | 0.00 | 0.00 | 64 | 1010.0 |
| 20260504213647 | 75 | 226 | 21.0 | 46.0 | 0.00 | 0.00 | 0.00 | 64 | 1010.0 |
| 20260504213447 | 75 | 226 | 21.0 | 46.0 | 0.00 | 0.00 | 0.00 | 64 | 1010.0 |
| 20260504213249 | 75 | 226 | 21.0 | 46.0 | 0.00 | 0.00 | 0.00 | 64 | 1010.0 |
| 20260504213047 | 75 | 226 | 21.0 | 46.0 | 0.00 | 0.00 | 0.00 | 64 | 1010.0 |
| 20260504212647 | 75 | 226 | 20.0 | 44.0 | 0.00 | 0.00 | 0.00 | 63 | 1010.0 |
| 20260504212447 | 75 | 226 | 20.0 | 44.0 | 0.00 | 0.00 | 0.00 | 63 | 1010.0 |
| 20260504212247 | 75 | 226 | 20.0 | 44.0 | 0.00 | 0.00 | 0.00 | 63 | 1010.0 |
| 20260504212047 | 75 | 226 | 20.0 | 44.0 | 0.00 | 0.00 | 0.00 | 63 | 1010.0 |
| 20260504211846 | 75 | 226 | 20.0 | 44.0 | 0.00 | 0.00 | 0.00 | 63 | 1010.0 |
| 20260504211646 | 75 | 226 | 20.0 | 44.0 | 0.00 | 0.00 | 0.00 | 63 | 1010.0 |
| 20260504211447 | 76 | 224 | 19.0 | 41.0 | 0.00 | 0.00 | 0.00 | 62 | 1010.0 |
| 20260504211247 | 76 | 224 | 19.0 | 41.0 | 0.00 | 0.00 | 0.00 | 62 | 1010.0 |
| 20260504211047 | 76 | 224 | 19.0 | 41.0 | 0.00 | 0.00 | 0.00 | 62 | 1010.0 |
| 20260504210847 | 76 | 224 | 19.0 | 41.0 | 0.00 | 0.00 | 0.00 | 62 | 1010.0 |
| 20260504210447 | 76 | 224 | 19.0 | 41.0 | 0.00 | 0.00 | 0.00 | 62 | 1010.0 |
| 20260504210247 | 76 | 224 | 19.0 | 41.0 | 0.00 | 0.00 | 0.00 | 62 | 1010.0 |
| 20260504210048 | 76 | 224 | 19.0 | 41.0 | 0.00 | 0.00 | 0.00 | 62 | 1010.0 |
| 20260504205847 | 76 | 223 | 18.0 | 39.0 | 0.00 | 0.00 | 0.00 | 62 | 1010.0 |
| 20260504205647 | 76 | 223 | 18.0 | 39.0 | 0.00 | 0.00 | 0.00 | 62 | 1010.0 |
| 20260504205447 | 76 | 223 | 18.0 | 39.0 | 0.00 | 0.00 | 0.00 | 62 | 1010.0 |
| 20260504205247 | 76 | 223 | 18.0 | 39.0 | 0.00 | 0.00 | 0.00 | 62 | 1010.0 |
| 20260504205047 | 76 | 223 | 18.0 | 39.0 | 0.00 | 0.00 | 0.00 | 62 | 1010.0 |
| 20260504204847 | 76 | 223 | 18.0 | 39.0 | 0.00 | 0.00 | 0.00 | 62 | 1010.0 |
| 20260504204648 | 76 | 223 | 18.0 | 39.0 | 0.00 | 0.00 | 0.00 | 62 | 1010.0 |
| 20260504204247 | 76 | 221 | 17.0 | 37.0 | 0.00 | 0.00 | 0.00 | 62 | 1010.0 |
| 20260504204047 | 76 | 221 | 17.0 | 37.0 | 0.00 | 0.00 | 0.00 | 62 | 1010.0 |
| 20260504203847 | 76 | 221 | 17.0 | 37.0 | 0.00 | 0.00 | 0.00 | 62 | 1010.0 |
| 20260504203647 | 76 | 221 | 17.0 | 37.0 | 0.00 | 0.00 | 0.00 | 62 | 1010.0 |
| 20260504203447 | 76 | 221 | 17.0 | 37.0 | 0.00 | 0.00 | 0.00 | 62 | 1010.0 |
| 20260504203247 | 76 | 221 | 17.0 | 37.0 | 0.00 | 0.00 | 0.00 | 62 | 1010.0 |
| 20260504203047 | 76 | 221 | 17.0 | 37.0 | 0.00 | 0.00 | 0.00 | 62 | 1010.0 |
| 20260504202847 | 76 | 219 | 16.0 | 34.0 | 0.00 | 0.00 | 0.00 | 62 | 1010.0 |
| 20260504202647 | 76 | 219 | 16.0 | 34.0 | 0.00 | 0.00 | 0.00 | 62 | 1010.0 |
| 20260504202247 | 76 | 214 | 18.0 | 34.0 | 0.00 | 0.00 | 0.00 | 62 | 1010.0 |
| 20260504202047 | 76 | 214 | 18.0 | 34.0 | 0.00 | 0.00 | 0.00 | 62 | 1010.0 |
| 20260504201847 | 76 | 214 | 18.0 | 34.0 | 0.00 | 0.00 | 0.00 | 62 | 1010.0 |
| 20260504201647 | 76 | 214 | 18.0 | 34.0 | 0.00 | 0.00 | 0.00 | 62 | 1010.0 |
| 20260504201447 | 76 | 209 | 18.0 | 32.0 | 0.00 | 0.00 | 0.00 | 62 | 1010.0 |
| 20260504201247 | 76 | 209 | 18.0 | 32.0 | 0.00 | 0.00 | 0.00 | 62 | 1010.0 |
| 20260504201047 | 76 | 209 | 18.0 | 32.0 | 0.00 | 0.00 | 0.00 | 62 | 1010.0 |
| 20260504200847 | 76 | 209 | 18.0 | 32.0 | 0.00 | 0.00 | 0.00 | 62 | 1010.0 |
| 20260504200647 | 76 | 209 | 18.0 | 32.0 | 0.00 | 0.00 | 0.00 | 62 | 1010.0 |
| 20260504200448 | 76 | 209 | 18.0 | 32.0 | 0.00 | 0.00 | 0.00 | 62 | 1010.0 |
| 20260504200048 | 76 | 209 | 18.0 | 32.0 | 0.00 | 0.00 | 0.00 | 62 | 1010.0 |
| 20260504195847 | 76 | 192 | 18.0 | 32.0 | 0.00 | 0.00 | 0.00 | 62 | 1010.0 |
| 20260504195647 | 76 | 192 | 18.0 | 32.0 | 0.00 | 0.00 | 0.00 | 62 | 1010.0 |
| 20260504195447 | 76 | 192 | 18.0 | 32.0 | 0.00 | 0.00 | 0.00 | 62 | 1010.0 |
| 20260504195247 | 76 | 192 | 18.0 | 32.0 | 0.00 | 0.00 | 0.00 | 62 | 1010.0 |
| 20260504195047 | 76 | 192 | 18.0 | 32.0 | 0.00 | 0.00 | 0.00 | 62 | 1010.0 |
| 20260504194847 | 76 | 192 | 18.0 | 32.0 | 0.00 | 0.00 | 0.00 | 62 | 1010.0 |
| 20260504194647 | 76 | 192 | 18.0 | 32.0 | 0.00 | 0.00 | 0.00 | 62 | 1010.0 |
| 20260504194447 | 76 | 193 | 20.0 | 32.0 | 0.00 | 0.00 | 0.00 | 62 | 1011.0 |
| 20260504194247 | 76 | 193 | 20.0 | 32.0 | 0.00 | 0.00 | 0.00 | 62 | 1011.0 |
| 20260504191447 | 77 | 195 | 23.0 | 54.0 | 0.00 | 0.00 | 0.00 | 60 | 1011.0 |
| 20260504191247 | 77 | 195 | 23.0 | 54.0 | 0.00 | 0.00 | 0.00 | 60 | 1011.0 |
| 20260504191047 | 77 | 195 | 23.0 | 54.0 | 0.00 | 0.00 | 0.00 | 63 | 1011.0 |
| 20260504190847 | 77 | 195 | 23.0 | 54.0 | 0.00 | 0.00 | 0.00 | 63 | 1011.0 |
| 20260504190647 | 77 | 195 | 23.0 | 54.0 | 0.00 | 0.00 | 0.00 | 63 | 1011.0 |
| 20260504190447 | 77 | 195 | 23.0 | 54.0 | 0.00 | 0.00 | 0.00 | 63 | 1011.0 |
| 20260504190247 | 77 | 195 | 23.0 | 54.0 | 0.00 | 0.00 | 0.00 | 63 | 1011.0 |
| 20260504190048 | 77 | 195 | 23.0 | 54.0 | 0.00 | 0.00 | 0.00 | 63 | 1011.0 |
| 20260504185847 | 77 | 195 | 23.0 | 52.0 | 0.00 | 0.02 | 0.00 | 63 | 1011.0 |
| 20260504185647 | 77 | 195 | 23.0 | 52.0 | 0.00 | 0.02 | 0.00 | 63 | 1011.0 |
| 20260504183247 | 77 | 195 | 23.0 | 50.0 | 0.00 | 0.02 | 0.00 | 62 | 1012.0 |
| 20260504183048 | 77 | 195 | 23.0 | 50.0 | 0.00 | 0.02 | 0.00 | 62 | 1012.0 |
| 20260504182846 | 77 | 195 | 23.0 | 47.0 | 0.00 | 0.02 | 0.00 | 61 | 1012.0 |
| 20260504182646 | 77 | 195 | 23.0 | 47.0 | 0.00 | 0.02 | 0.00 | 61 | 1012.0 |
| 20260504182447 | 77 | 195 | 23.0 | 47.0 | 0.00 | 0.02 | 0.00 | 61 | 1012.0 |
| 20260504182248 | 77 | 195 | 23.0 | 47.0 | 0.00 | 0.02 | 0.00 | 61 | 1012.0 |
| 20260504182048 | 77 | 195 | 23.0 | 47.0 | 0.00 | 0.02 | 0.00 | 61 | 1012.0 |
| 20260504181646 | 77 | 195 | 23.0 | 47.0 | 0.00 | 0.02 | 0.00 | 61 | 1012.0 |
| 20260504181446 | 78 | 191 | 22.0 | 45.0 | 0.00 | 0.02 | 0.00 | 60 | 1012.0 |
| 20260504181246 | 78 | 191 | 22.0 | 45.0 | 0.00 | 0.02 | 0.00 | 60 | 1012.0 |
| 20260504181047 | 78 | 191 | 22.0 | 45.0 | 0.00 | 0.02 | 0.00 | 60 | 1012.0 |
| 20260504180846 | 78 | 191 | 22.0 | 45.0 | 0.00 | 0.02 | 0.00 | 60 | 1012.0 |
| 20260504180646 | 78 | 191 | 22.0 | 45.0 | 0.00 | 0.02 | 0.00 | 60 | 1012.0 |
| 20260504180447 | 78 | 191 | 22.0 | 45.0 | 0.00 | 0.02 | 0.00 | 60 | 1012.0 |
| 20260504180247 | 78 | 191 | 22.0 | 45.0 | 0.00 | 0.02 | 0.00 | 60 | 1012.0 |
| 20260504180049 | 78 | 191 | 22.0 | 45.0 | 0.00 | 0.02 | 0.00 | 60 | 1012.0 |
| 20260504175549 | 78 | 184 | 21.0 | 45.0 | 0.00 | 0.02 | 0.00 | 59 | 1012.0 |
| 20260504175348 | 78 | 184 | 21.0 | 45.0 | 0.00 | 0.02 | 0.00 | 59 | 1012.0 |
| 20260504175148 | 78 | 184 | 21.0 | 45.0 | 0.00 | 0.02 | 0.00 | 59 | 1012.0 |
| 20260504174949 | 78 | 184 | 21.0 | 45.0 | 0.00 | 0.02 | 0.00 | 59 | 1012.0 |
| 20260504174749 | 78 | 184 | 21.0 | 45.0 | 0.00 | 0.02 | 0.00 | 59 | 1012.0 |
| 20260504174548 | 78 | 184 | 21.0 | 45.0 | 0.00 | 0.02 | 0.00 | 59 | 1012.0 |
| 20260504174349 | 78 | 172 | 20.0 | 45.0 | 0.00 | 0.02 | 0.00 | 58 | 1012.0 |
| 20260504173609 | 78 | 172 | 20.0 | 45.0 | 0.00 | 0.02 | 0.00 | 58 | 1012.0 |
| 20260504173409 | 78 | 172 | 20.0 | 45.0 | 0.00 | 0.02 | 0.00 | 58 | 1012.0 |
| 20260504173209 | 78 | 172 | 20.0 | 45.0 | 0.00 | 0.02 | 0.00 | 58 | 1012.0 |
| 20260504172630 | 78 | 158 | 19.0 | 44.0 | 0.00 | 0.02 | 0.00 | 58 | 1012.0 |
| 20260504172430 | 78 | 158 | 19.0 | 44.0 | 0.00 | 0.02 | 0.00 | 58 | 1012.0 |
| 20260504172230 | 78 | 158 | 19.0 | 44.0 | 0.00 | 0.02 | 0.00 | 58 | 1012.0 |
| 20260504171831 | 78 | 158 | 19.0 | 44.0 | 0.00 | 0.02 | 0.00 | 58 | 1012.0 |
| 20260504171631 | 78 | 158 | 19.0 | 44.0 | 0.00 | 0.02 | 0.00 | 58 | 1012.0 |
| 20260504171431 | 79 | 145 | 19.0 | 44.0 | 0.00 | 0.02 | 0.00 | 56 | 1012.0 |
| 20260504171231 | 79 | 145 | 19.0 | 44.0 | 0.00 | 0.02 | 0.00 | 56 | 1012.0 |
| 20260504171031 | 79 | 145 | 19.0 | 44.0 | 0.00 | 0.02 | 0.00 | 56 | 1012.0 |
| 20260504170831 | 79 | 145 | 19.0 | 44.0 | 0.00 | 0.02 | 0.00 | 56 | 1012.0 |
| 20260504170631 | 79 | 145 | 19.0 | 44.0 | 0.00 | 0.02 | 0.00 | 56 | 1012.0 |
| 20260504170431 | 79 | 145 | 19.0 | 44.0 | 0.00 | 0.02 | 0.00 | 56 | 1012.0 |
| 20260504170231 | 79 | 145 | 19.0 | 44.0 | 0.00 | 0.02 | 0.00 | 56 | 1012.0 |
| 20260504160431 | 81 | 107 | 20.0 | 41.0 | 0.00 | 0.02 | 0.00 | 50 | 1011.0 |
| 20260504160231 | 81 | 107 | 20.0 | 41.0 | 0.00 | 0.02 | 0.00 | 50 | 1011.0 |
| 20260504150831 | 83 | 148 | 13.0 | 30.0 | 0.00 | 0.02 | 0.00 | 40 | 1010.0 |
| 20260504150634 | 83 | 148 | 13.0 | 30.0 | 0.00 | 0.02 | 0.00 | 40 | 1010.0 |
| 20260504150431 | 83 | 148 | 13.0 | 30.0 | 0.00 | 0.02 | 0.00 | 40 | 1010.0 |
| 20260504150231 | 83 | 148 | 13.0 | 30.0 | 0.00 | 0.02 | 0.00 | 40 | 1010.0 |
| 20260504141231 | 87 | 342 | 6.0 | 26.0 | 0.00 | 0.02 | 0.00 | 31 | 1009.0 |
| 20260504141031 | 87 | 342 | 6.0 | 26.0 | 0.00 | 0.02 | 0.00 | 31 | 1009.0 |
| 20260504140831 | 87 | 342 | 6.0 | 26.0 | 0.00 | 0.02 | 0.00 | 31 | 1009.0 |
| 20260504140336 | 87 | 302 | 12.0 | 26.0 | 0.00 | 0.02 | 0.00 | 31 | 1009.0 |
| 20260504140137 | 87 | 302 | 12.0 | 26.0 | 0.00 | 0.02 | 0.00 | 31 | 1009.0 |
| 20260504130736 | 90 | 348 | 16.0 | 51.0 | 0.00 | 0.02 | 0.00 | 27 | 1007.0 |
| 20260504130536 | 90 | 348 | 16.0 | 51.0 | 0.00 | 0.02 | 0.00 | 27 | 1007.0 |
| 20260504130137 | 90 | 348 | 16.0 | 51.0 | 0.00 | 0.02 | 0.00 | 27 | 1007.0 |
| 20260504110259 | 94 | 3 | 21.0 | 58.0 | 0.00 | 0.02 | 0.00 | 23 | 1006.0 |
| 20260504100459 | 94 | 360 | 18.0 | 54.0 | 0.00 | 0.02 | 0.00 | 24 | 1006.0 |
| 20260504100300 | 94 | 360 | 18.0 | 54.0 | 0.00 | 0.02 | 0.00 | 24 | 1006.0 |
| 20260504081959 | 94 | 4 | 15.0 | 54.0 | 0.00 | 0.02 | 0.00 | 26 | 1008.0 |
| 20260504081800 | 94 | 4 | 15.0 | 54.0 | 0.00 | 0.02 | 0.00 | 26 | 1008.0 |
| 20260504081359 | 93 | 2 | 16.0 | 55.0 | 0.00 | 0.02 | 0.00 | 26 | 1008.0 |
| 20260504081159 | 93 | 2 | 16.0 | 55.0 | 0.00 | 0.02 | 0.00 | 26 | 1008.0 |
| 20260504080959 | 93 | 2 | 16.0 | 55.0 | 0.00 | 0.02 | 0.00 | 26 | 1008.0 |
| 20260504080759 | 93 | 2 | 16.0 | 55.0 | 0.00 | 0.02 | 0.00 | 26 | 1008.0 |
| 20260504080559 | 93 | 2 | 16.0 | 55.0 | 0.00 | 0.02 | 0.00 | 26 | 1008.0 |
| 20260504080359 | 93 | 2 | 16.0 | 55.0 | 0.00 | 0.02 | 0.00 | 26 | 1008.0 |
| 20260504080159 | 93 | 2 | 16.0 | 55.0 | 0.00 | 0.02 | 0.00 | 26 | 1008.0 |
| 20260504070359 | 94 | 340 | 19.0 | 62.0 | 0.00 | 0.00 | 0.00 | 27 | 1009.0 |
| 20260504070159 | 94 | 340 | 19.0 | 62.0 | 0.00 | 0.00 | 0.00 | 25 | 1009.0 |
| 20260504060234 | 92 | 326 | 20.0 | 62.0 | 0.00 | 0.00 | 0.00 | 28 | 1010.0 |
| 20260504050547 | 89 | 308 | 20.0 | 62.0 | 0.00 | 0.00 | 0.00 | 37 | 1011.0 |
| 20260504050347 | 89 | 308 | 20.0 | 62.0 | 0.00 | 0.00 | 0.00 | 37 | 1011.0 |
| 20260504050147 | 89 | 308 | 20.0 | 62.0 | 0.00 | 0.00 | 0.00 | 37 | 1011.0 |
| 20260504045947 | 88 | 305 | 20.0 | 60.0 | 0.00 | 0.00 | 0.00 | 40 | 1011.0 |
| 20260504045747 | 88 | 305 | 20.0 | 60.0 | 0.00 | 0.00 | 0.00 | 40 | 1011.0 |
| 20260504045547 | 88 | 305 | 20.0 | 60.0 | 0.00 | 0.00 | 0.00 | 40 | 1011.0 |
| 20260504045347 | 88 | 305 | 20.0 | 60.0 | 0.00 | 0.00 | 0.00 | 40 | 1011.0 |
| 20260504045147 | 88 | 305 | 20.0 | 60.0 | 0.00 | 0.00 | 0.00 | 40 | 1011.0 |
| 20260504044947 | 88 | 305 | 20.0 | 60.0 | 0.00 | 0.00 | 0.00 | 40 | 1011.0 |
| 20260504044547 | 88 | 305 | 20.0 | 60.0 | 0.00 | 0.00 | 0.00 | 40 | 1011.0 |
| 20260504044347 | 87 | 301 | 20.0 | 59.0 | 0.00 | 0.00 | 0.00 | 43 | 1011.0 |
| 20260504044147 | 87 | 301 | 20.0 | 59.0 | 0.00 | 0.00 | 0.00 | 43 | 1011.0 |
| 20260504043947 | 87 | 301 | 20.0 | 59.0 | 0.00 | 0.00 | 0.00 | 43 | 1011.0 |
| 20260504043747 | 87 | 301 | 20.0 | 59.0 | 0.00 | 0.00 | 0.00 | 43 | 1011.0 |
| 20260504043547 | 87 | 301 | 20.0 | 59.0 | 0.00 | 0.00 | 0.00 | 43 | 1011.0 |
| 20260504043347 | 87 | 301 | 20.0 | 59.0 | 0.00 | 0.00 | 0.00 | 43 | 1011.0 |
| 20260504043147 | 87 | 301 | 20.0 | 59.0 | 0.00 | 0.00 | 0.00 | 43 | 1011.0 |
| 20260504042947 | 85 | 296 | 20.0 | 57.0 | 0.00 | 0.00 | 0.00 | 47 | 1012.0 |
| 20260504042547 | 85 | 296 | 20.0 | 57.0 | 0.00 | 0.00 | 0.00 | 47 | 1012.0 |
| 20260504042347 | 85 | 296 | 20.0 | 57.0 | 0.00 | 0.00 | 0.00 | 47 | 1012.0 |
| 20260504042147 | 85 | 296 | 20.0 | 57.0 | 0.00 | 0.00 | 0.00 | 47 | 1012.0 |
| 20260504041947 | 85 | 296 | 20.0 | 57.0 | 0.00 | 0.00 | 0.00 | 47 | 1012.0 |
| 20260504041747 | 85 | 296 | 20.0 | 57.0 | 0.00 | 0.00 | 0.00 | 47 | 1012.0 |
| 20260504041547 | 85 | 296 | 20.0 | 57.0 | 0.00 | 0.00 | 0.00 | 47 | 1012.0 |
| 20260504041347 | 84 | 292 | 20.0 | 55.0 | 0.00 | 0.00 | 0.00 | 52 | 1012.0 |
| 20260504041147 | 84 | 292 | 20.0 | 55.0 | 0.00 | 0.00 | 0.00 | 52 | 1012.0 |
| 20260504040947 | 84 | 292 | 20.0 | 55.0 | 0.00 | 0.00 | 0.00 | 52 | 1012.0 |
| 20260504040748 | 84 | 292 | 20.0 | 55.0 | 0.00 | 0.00 | 0.00 | 52 | 1012.0 |
| 20260504040347 | 84 | 292 | 20.0 | 55.0 | 0.00 | 0.00 | 0.00 | 52 | 1012.0 |
| 20260504040148 | 84 | 292 | 20.0 | 55.0 | 0.00 | 0.00 | 0.00 | 52 | 1012.0 |
| 20260504035947 | 83 | 289 | 19.0 | 55.0 | 0.00 | 0.00 | 0.00 | 54 | 1012.0 |
| 20260504035747 | 83 | 289 | 19.0 | 55.0 | 0.00 | 0.00 | 0.00 | 54 | 1012.0 |
| 20260504035548 | 83 | 289 | 19.0 | 55.0 | 0.00 | 0.00 | 0.00 | 54 | 1012.0 |
| 20260504035347 | 83 | 289 | 19.0 | 55.0 | 0.00 | 0.00 | 0.00 | 54 | 1012.0 |
| 20260504035147 | 83 | 289 | 19.0 | 55.0 | 0.00 | 0.00 | 0.00 | 54 | 1012.0 |
| 20260504034947 | 83 | 289 | 19.0 | 55.0 | 0.00 | 0.00 | 0.00 | 54 | 1012.0 |
| 20260504034747 | 83 | 289 | 19.0 | 55.0 | 0.00 | 0.00 | 0.00 | 54 | 1012.0 |
| 20260504034347 | 82 | 284 | 19.0 | 53.0 | 0.00 | 0.00 | 0.00 | 58 | 1012.0 |
| 20260504034147 | 82 | 284 | 19.0 | 53.0 | 0.00 | 0.00 | 0.00 | 58 | 1012.0 |
| 20260504033947 | 82 | 284 | 19.0 | 53.0 | 0.00 | 0.00 | 0.00 | 58 | 1012.0 |
| 20260504033747 | 82 | 284 | 19.0 | 53.0 | 0.00 | 0.00 | 0.00 | 58 | 1012.0 |
| 20260504033547 | 82 | 284 | 19.0 | 53.0 | 0.00 | 0.00 | 0.00 | 58 | 1012.0 |
| 20260504033347 | 82 | 284 | 19.0 | 53.0 | 0.00 | 0.00 | 0.00 | 58 | 1012.0 |
| 20260504033147 | 82 | 284 | 19.0 | 53.0 | 0.00 | 0.00 | 0.00 | 58 | 1012.0 |
| 20260504032947 | 81 | 279 | 18.0 | 51.0 | 0.00 | 0.00 | 0.00 | 62 | 1012.0 |
| 20260504032747 | 81 | 279 | 18.0 | 51.0 | 0.00 | 0.00 | 0.00 | 62 | 1012.0 |
| 20260504032548 | 81 | 279 | 18.0 | 51.0 | 0.00 | 0.00 | 0.00 | 62 | 1012.0 |
| 20260504032147 | 81 | 279 | 18.0 | 51.0 | 0.00 | 0.00 | 0.00 | 62 | 1012.0 |
| 20260504031947 | 81 | 279 | 18.0 | 51.0 | 0.00 | 0.00 | 0.00 | 62 | 1012.0 |
| 20260504031747 | 81 | 279 | 18.0 | 51.0 | 0.00 | 0.00 | 0.00 | 62 | 1012.0 |
| 20260504031547 | 81 | 279 | 18.0 | 51.0 | 0.00 | 0.00 | 0.00 | 62 | 1012.0 |
| 20260504031347 | 79 | 274 | 18.0 | 50.0 | 0.00 | 0.00 | 0.00 | 66 | 1012.0 |
| 20260504031147 | 79 | 274 | 18.0 | 50.0 | 0.00 | 0.00 | 0.00 | 66 | 1012.0 |
| 20260504030947 | 79 | 274 | 18.0 | 50.0 | 0.00 | 0.00 | 0.00 | 66 | 1012.0 |
| 20260504030747 | 79 | 274 | 18.0 | 50.0 | 0.00 | 0.00 | 0.00 | 66 | 1012.0 |
| 20260504030547 | 79 | 274 | 18.0 | 50.0 | 0.00 | 0.00 | 0.00 | 66 | 1012.0 |
| 20260504030348 | 79 | 274 | 18.0 | 50.0 | 0.00 | 0.00 | 0.00 | 66 | 1012.0 |
| 20260504025947 | 78 | 274 | 17.0 | 48.0 | 0.00 | 0.00 | 0.00 | 69 | 1012.0 |
| 20260504025747 | 78 | 274 | 17.0 | 48.0 | 0.00 | 0.00 | 0.00 | 69 | 1012.0 |
| 20260504025547 | 78 | 274 | 17.0 | 48.0 | 0.00 | 0.00 | 0.00 | 69 | 1012.0 |
| 20260504025347 | 78 | 274 | 17.0 | 48.0 | 0.00 | 0.00 | 0.00 | 69 | 1012.0 |
| 20260504025147 | 78 | 274 | 17.0 | 48.0 | 0.00 | 0.00 | 0.00 | 69 | 1012.0 |
| 20260504024947 | 78 | 274 | 17.0 | 48.0 | 0.00 | 0.00 | 0.00 | 69 | 1012.0 |
| 20260504024747 | 78 | 274 | 17.0 | 48.0 | 0.00 | 0.00 | 0.00 | 69 | 1012.0 |
| 20260504024547 | 78 | 274 | 17.0 | 48.0 | 0.00 | 0.00 | 0.00 | 69 | 1012.0 |
| 20260504024347 | 77 | 274 | 17.0 | 46.0 | 0.00 | 0.00 | 0.00 | 74 | 1012.0 |
| 20260504024148 | 77 | 274 | 17.0 | 46.0 | 0.00 | 0.00 | 0.00 | 74 | 1012.0 |
| 20260504023747 | 77 | 274 | 17.0 | 46.0 | 0.00 | 0.00 | 0.00 | 74 | 1012.0 |
| 20260504023547 | 77 | 274 | 17.0 | 46.0 | 0.00 | 0.00 | 0.00 | 74 | 1012.0 |
| 20260504023347 | 77 | 274 | 17.0 | 46.0 | 0.00 | 0.00 | 0.00 | 74 | 1012.0 |
| 20260504023147 | 77 | 274 | 17.0 | 46.0 | 0.00 | 0.00 | 0.00 | 74 | 1012.0 |
| 20260504022947 | 76 | 272 | 16.0 | 44.0 | 0.00 | 0.00 | 0.00 | 78 | 1012.0 |
| 20260504022747 | 76 | 272 | 16.0 | 44.0 | 0.00 | 0.00 | 0.00 | 78 | 1012.0 |
| 20260504022547 | 76 | 272 | 16.0 | 44.0 | 0.00 | 0.00 | 0.00 | 78 | 1012.0 |
| 20260504022347 | 76 | 272 | 16.0 | 44.0 | 0.00 | 0.00 | 0.00 | 78 | 1012.0 |
| 20260504022147 | 76 | 272 | 16.0 | 44.0 | 0.00 | 0.00 | 0.00 | 78 | 1012.0 |
| 20260504021551 | 76 | 272 | 16.0 | 44.0 | 0.00 | 0.00 | 0.00 | 78 | 1012.0 |
| 20260504021351 | 74 | 271 | 16.0 | 41.0 | 0.00 | 0.00 | 0.00 | 83 | 1012.0 |
| 20260504021151 | 74 | 271 | 16.0 | 41.0 | 0.00 | 0.00 | 0.00 | 83 | 1012.0 |
| 20260504020951 | 74 | 271 | 16.0 | 41.0 | 0.00 | 0.00 | 0.00 | 83 | 1012.0 |
| 20260504020551 | 74 | 271 | 16.0 | 41.0 | 0.00 | 0.00 | 0.00 | 83 | 1012.0 |
| 20260504020351 | 74 | 271 | 16.0 | 41.0 | 0.00 | 0.00 | 0.00 | 83 | 1012.0 |
| 20260504020151 | 74 | 271 | 16.0 | 41.0 | 0.00 | 0.00 | 0.00 | 83 | 1012.0 |
| 20260504015951 | 74 | 270 | 15.0 | 39.0 | 0.00 | 0.00 | 0.00 | 84 | 1012.0 |
| 20260504015751 | 74 | 270 | 15.0 | 39.0 | 0.00 | 0.00 | 0.00 | 84 | 1012.0 |
| 20260504015551 | 74 | 270 | 15.0 | 39.0 | 0.00 | 0.00 | 0.00 | 84 | 1012.0 |
| 20260504015351 | 74 | 270 | 15.0 | 39.0 | 0.00 | 0.00 | 0.00 | 84 | 1012.0 |
| 20260504015151 | 74 | 270 | 15.0 | 39.0 | 0.00 | 0.00 | 0.00 | 84 | 1012.0 |
| 20260504014951 | 74 | 270 | 15.0 | 39.0 | 0.00 | 0.00 | 0.00 | 84 | 1012.0 |
| 20260504014551 | 74 | 270 | 15.0 | 39.0 | 0.00 | 0.00 | 0.00 | 84 | 1012.0 |
| 20260504014351 | 73 | 267 | 15.0 | 37.0 | 0.00 | 0.00 | 0.00 | 87 | 1012.0 |
| 20260504014151 | 73 | 267 | 15.0 | 37.0 | 0.00 | 0.00 | 0.00 | 87 | 1012.0 |
| 20260504013951 | 73 | 267 | 15.0 | 37.0 | 0.00 | 0.00 | 0.00 | 87 | 1012.0 |
| 20260504013751 | 73 | 267 | 15.0 | 37.0 | 0.00 | 0.00 | 0.00 | 87 | 1012.0 |
| 20260504013551 | 73 | 267 | 15.0 | 37.0 | 0.00 | 0.00 | 0.00 | 87 | 1012.0 |
| 20260504013351 | 73 | 267 | 15.0 | 37.0 | 0.00 | 0.00 | 0.00 | 87 | 1012.0 |
| 20260504013151 | 73 | 267 | 15.0 | 37.0 | 0.00 | 0.00 | 0.00 | 87 | 1012.0 |
| 20260504012951 | 72 | 265 | 15.0 | 34.0 | 0.00 | 0.00 | 0.00 | 89 | 1011.0 |
| 20260504012752 | 72 | 265 | 15.0 | 34.0 | 0.00 | 0.00 | 0.00 | 89 | 1011.0 |
| 20260504012351 | 72 | 265 | 15.0 | 34.0 | 0.00 | 0.00 | 0.00 | 89 | 1011.0 |
| 20260504012151 | 72 | 265 | 15.0 | 34.0 | 0.00 | 0.00 | 0.00 | 89 | 1011.0 |
| 20260504011951 | 72 | 265 | 15.0 | 34.0 | 0.00 | 0.00 | 0.00 | 89 | 1011.0 |
| 20260504011751 | 72 | 265 | 15.0 | 34.0 | 0.00 | 0.00 | 0.00 | 89 | 1011.0 |